Tracking 19644 objects as of 25-Apr-2019
HD Live streaming from Space Station
objects crossing your sky now

THORAD AGENA D DEB

Track THORAD AGENA D DEB now!
10-day predictions


NORAD ID: 14466
Int'l Code: 1970-025NS
Perigee: 742.9 km
Apogee: 843.7 km
Inclination: 100.0 °
Period: 100.6 minutes
Semi major axis: 7164 km
RCS: 0.0078 m2 (small)
Launch date: April 8, 1970
Source: United States (US)
Launch site: AIR FORCE WESTERN TEST RANGE (AFWTR)

Note: This is SATELLITE DEBRIS
aabbcc
Your satellite tracking list
Your tracking list is empty




NASA's NSSDC Master Catalog

Two Line Element Set (TLE):
1 14466U 70025NS  19114.19506891 +.00000599 +00000-0 +23912-3 0  9993
2 14466 099.9652 202.9955 0070336 167.7958 192.4945 14.31677332936758
Source of the keplerian elements: AFSPC